SV9FBP Weather Reports


time (UTC)temp
F
wind
direction
speed
knots
gust
knots
rain 1hr
in
rain 24hr
in
rain mn
in
humidity
%
barometer
mb
20260504110232 67 315 20.0 28.7 0.00 0.03 0.03 41 1016.5
20260504100225 61 315 13.0 20.0 0.00 0.03 0.03 51 1017.0
20260504081709 60 0 9.6 21.7 0.00 0.03 0.03 56 1016.5
20260504080207 60 0 13.0 19.1 0.00 0.03 0.03 55 1016.7
20260504070159 60 0 10.4 20.9 0.00 0.03 0.03 54 1015.9
20260504060150 59 0 10.4 18.2 0.00 0.03 0.03 54 1015.2
20260504050141 58 45 16.5 20.9 0.00 0.03 0.03 54 1014.9
20260504044639 58 315 9.6 23.5 0.00 0.03 0.03 54 1014.8
20260504043137 58 315 19.1 23.5 0.00 0.03 0.03 55 1014.6
20260504041635 57 0 11.3 22.6 0.00 0.03 0.03 58 1014.6
20260504040132 57 315 13.9 20.0 0.00 0.03 0.03 60 1014.3
20260504034630 57 0 14.8 21.7 0.00 0.03 0.03 61 1014.1
20260504033128 57 315 16.5 22.6 0.00 0.03 0.03 61 1013.9
20260504031626 57 0 8.7 23.5 0.00 0.03 0.03 62 1013.9
20260504030124 56 0 14.8 26.1 0.00 0.03 0.03 63 1013.9
20260504024622 56 0 12.2 22.6 0.00 0.03 0.03 63 1013.6
20260504023120 56 0 13.9 22.6 0.00 0.03 0.03 66 1013.4
20260504021618 56 0 13.9 26.1 0.00 0.03 0.03 67 1013.2
20260504020115 56 0 14.8 26.1 0.00 0.03 0.03 68 1013.4
20260504014614 57 338 19.1 28.7 0.00 0.03 0.03 66 1013.7
20260504013112 56 338 7.0 22.6 0.00 0.03 0.03 64 1013.2
20260504011609 56 315 20.0 26.1 0.00 0.03 0.03 64 1013.2
20260504010114 56 45 13.0 23.5 0.00 0.03 0.03 64 1013.3
20260504004605 56 315 19.1 25.2 0.00 0.03 0.03 65 1013.1
20260504003103 55 0 11.3 20.9 0.01 0.03 0.03 68 1013.5
20260504001601 55 315 12.2 23.5 0.01 0.03 0.03 69 1013.7
20260504000058 55 315 20.0 31.3 0.03 0.03 0.03 69 1013.6
20260503234556 55 0 16.5 23.5 0.03 0.03 0.03 68 1013.7
20260503233055 56 0 14.8 26.1 0.01 0.01 0.01 66 1013.8
20260503231552 57 315 11.3 23.5 0.01 0.01 0.01 62 1013.9
20260503230050 57 315 10.4 18.2 0.00 0.00 0.00 60 1013.6
20260503224547 57 338 9.6 20.0 0.00 0.00 0.00 59 1013.5
20260503223046 57 315 14.8 23.5 0.00 0.00 0.00 59 1013.7
20260503221543 56 315 13.0 21.7 0.00 0.00 0.00 61 1013.8
20260503220041 56 315 2.6 23.5 0.00 0.00 0.00 61 1013.3
20260503214539 56 0 13.9 26.1 0.00 0.00 0.00 62 1013.3
20260503213038 56 0 15.6 22.6 0.00 0.00 0.00 64 1012.8
20260503211535 56 0 23.5 30.4 0.00 0.00 0.00 63 1013.2
20260503210033 58 0 20.0 37.4 0.00 0.00 0.00 57 1013.3
20260503204530 58 315 16.5 26.9 0.00 0.00 0.00 54 1013.0
20260503203028 58 45 2.6 12.2 0.00 0.00 0.00 53 1013.1
20260503201526 58 0 9.6 20.9 0.00 0.00 0.00 52 1013.0
20260503200024 58 315 18.2 20.9 0.00 0.00 0.00 52 1013.1
20260503194522 58 315 7.0 14.8 0.00 0.00 0.00 52 1013.0
20260503193020 58 0 13.0 18.2 0.00 0.00 0.00 54 1013.1
20260503191517 58 0 7.8 19.1 0.00 0.00 0.00 54 1012.9
20260503190015 58 315 8.7 14.8 0.00 0.00 0.00 55 1013.1
20260503184514 58 0 7.8 14.8 0.00 0.00 0.00 55 1013.0
20260503183014 58 315 13.0 18.2 0.00 0.00 0.00 53 1012.8
20260503181508 58 0 10.4 21.7 0.00 0.00 0.00 52 1013.0
20260503180007 58 315 17.4 24.3 0.00 0.00 0.00 53 1012.8
20260503174505 58 45 6.1 11.3 0.00 0.00 0.00 52 1012.8
20260503173003 58 315 10.4 20.9 0.00 0.00 0.00 52 1012.5
20260503171501 58 0 17.4 20.9 0.00 0.00 0.00 54 1012.9